Find Starlink 32401

NORAD ID: 61865 Int'l Des: 2024-202 Owner: SPXS Country: US Constellation: starlink operational
LEOCIRCULAR

当前视图

正在加载3D地球...

About Starlink 32401

Starlink 32401 (NORAD 61865) is a starlink constellation satellite (v2 mini) launched Nov 7, 2024 by SPXS of US. It operates in LEO, CIRCULAR orbit with a mass of 730.00 kg.

关于 Starlink 32401

正在加载描述...

即将过境

Passes for default location (London). Set your location on the main map for personalized predictions.

高度历史

Loading altitude history...

两行轨道根数

1 61865U 24202W 26171.28156922 .00000182 00000-0 16148-4 0 9993
2 61865 43.0060 18.9551 0001587 269.8747 90.1922 15.27577242 91021
Epoch: Jun 20, 2026 • Age: 20 hours

当前状态

高度 495.3 km
速度 7.62 km/s
星下点 -43.04°S, 21.46°W
发射日期 Nov 7, 2024
运行时间 1.6 years
类型 internet

技术详情

分类 Payload
质量 730.00 kg
干质量 700.00 kg
总质量 730.00 kg
长度 0.30 m
直径 4.10 m
跨度 29.00 m
形状 Box + pan
制造商 SPXS
平台类型 Starlink V2M
阶段状态 In Orbit
所有者/国家 SPXS/US

Most Searched